Lapse_Rate
1.4 1.6 1.9 2.1 2.4 2.1 1.7 0.8 -0.1 -0.3 0.4 1.2 2.7 5.9 6.1 6.2 5.2 5.1 5.0 5.7 5.7 6.6
1.0 1.4 1.9 1.8 1.9 1.7 1.9 1.8 1.1 0.9 1.1 1.4 2.8 4.5 6.5 5.9 6.1 5.6 5.4 5.5 4.9 5.2
2.3 2.0 2.5 2.5 2.3 3.6 4.3 4.0 1.9 1.4 2.2 2.5 2.9 4.5 5.6 5.1 5.0 5.3 5.6 5.8 5.3 4.2
2.3 2.4 2.8 2.7 2.8 3.3 3.3 3.2 2.5 2.2 3.7 3.7 4.1 4.7 6.2 5.2 5.4 5.3 5.9 5.7 4.9 4.6
4.0 3.6 3.2 3.1 2.9 2.7 1.8 1.2 1.6 2.6 4.0 3.6 3.8 4.6 6.3 6.3 6.1 6.3 6.2 6.2 5.1 4.4
4.4 3.5 3.2 2.8 3.0 2.3 1.5 0.7 0.7 0.4 2.2 3.8 4.0 4.0 6.8 6.2 6.1 5.2 5.8 5.7 5.1 5.1
4.6 3.9 3.0 2.8 1.9 1.5 1.5 1.1 0.3 0.3 -0.3 0.5 0.9 4.6 6.5 5.9 6.3 5.9 5.7 5.2 5.0 4.7
5.2 4.4 3.3 3.0 2.3 1.9 1.6 2.0 0.9 -1.2 -0.5 -1.8 -2.4 -1.8 0.4 3.1 6.3 5.8 3.3 0.7 -0.7 -2.0
5.7 5.6 5.2 3.7 2.0 1.3 1.1 1.5 0.3 -0.6 1.9 -0.5 -1.5 -3.3 -2.6 1.1 4.6 2.0 -0.5 -2.5 -4.0 -4.3
5.7 5.9 5.4 4.3 3.5 2.6 3.2 2.6 1.1 -0.1 2.2 0.3 -1.0 -4.8 -4.7 -4.0 -4.0 -3.8 -3.0 -2.2 -1.9 -3.6
4.8 5.0 4.2 4.4 4.1 3.5 3.0 2.8 2.6 1.2 0.7 1.2 0.9 0.6 -2.3 -3.5 -4.4 -5.4 -3.8 -3.7 -3.0 -2.9
3.0 3.1 3.5 3.3 3.6 3.5 2.9 2.3 1.9 1.8 2.1 1.9 1.2 0.7 0.2 0.4 -0.1 -0.4 -1.5 -0.0 -0.4 0.6
3.1 1.7 1.9 2.7 2.3 2.6 2.4 2.2 1.8 1.2 1.0 1.7 2.0 2.6 0.9 0.1 -0.7 0.1 0.7 0.0 0.6 0.9
1.8 1.6 0.8 1.1 1.5 1.4 1.5 1.2 1.2 1.5 1.8 1.4 1.7 2.4 2.8 1.8 0.2 0.4 0.9 1.1 1.4 1.8
Wind_Speed
12 8 10 12 12 12 12 14 17 16 15 15 15 16 13 12 11 13 13 16 12 10
11 13 13 15 14 12 15 14 18 18 18 16 17 18 14 11 13 13 13 15 14 11
14 14 14 14 16 16 16 18 19 22 20 18 17 18 16 13 14 15 12 12 14 14
14 15 15 14 15 15 16 16 18 19 19 19 19 19 18 18 16 17 16 15 15 16
14 14 13 13 15 15 16 15 16 16 20 21 19 19 20 19 17 19 18 18 18 18
13 14 14 14 14 13 14 13 12 13 13 15 18 18 21 19 18 18 19 19 19 19
14 14 13 14 14 14 14 13 13 12 12 10 8 8 16 19 19 19 18 16 17 14
12 12 13 13 13 13 14 13 14 14 14 12 12 8 8 9 16 15 6 8 9 7
12 11 11 12 15 16 16 14 16 20 14 14 12 21 22 8 1 10 10 11 11 12
12 12 13 14 14 15 15 14 17 17 17 20 17 32 33 28 15 18 14 11 7 9
15 14 16 15 16 16 15 16 17 20 20 20 22 31 32 28 21 20 20 17 14 10
15 15 15 17 16 14 15 16 18 18 23 24 25 36 32 23 19 20 21 18 18 12
14 15 16 14 15 13 13 15 14 19 21 30 25 34 34 22 14 16 12 17 15 25
14 15 14 13 14 14 14 15 16 18 18 20 23 24 33 30 15 12 12 12 12 12
Wind_Direction
316 305 299 293 289 285 283 284 288 287 283 284 285 269 229 224 215 207 208 204 211 217
316 310 299 292 284 279 275 276 278 275 272 269 265 271 230 229 221 208 211 210 198 203
318 314 306 300 292 284 281 278 276 273 269 267 263 263 233 220 216 211 207 208 202 194
320 316 311 304 297 291 288 281 275 273 264 257 253 251 240 222 221 214 212 206 196 196
321 318 316 312 308 306 300 295 281 278 283 243 238 239 238 217 219 215 209 205 196 202
334 334 330 329 321 322 320 314 311 310 312 242 233 231 240 218 212 214 207 204 198 205
348 344 342 339 344 343 342 338 344 353 345 359 353 265 237 221 211 216 209 203 197 198
345 349 358 355 360 356 356 354 8 10 358 13 19 351 288 255 212 212 162 102 96 86
349 353 0 10 16 15 11 3 17 28 357 30 28 29 41 24 283 91 105 102 96 94
355 358 11 18 20 22 21 21 29 35 17 25 33 38 43 58 66 60 51 61 84 93
359 8 13 19 22 25 22 26 34 36 32 34 34 39 52 51 59 64 53 42 38 54
5 8 15 20 19 21 24 30 34 32 36 39 36 34 40 50 54 56 61 52 42 35
14 16 16 14 20 19 28 34 33 36 34 34 38 36 43 41 55 59 56 62 49 58
19 23 17 18 21 26 26 34 35 37 33 31 31 31 39 44 46 50 54 55 55 58